Retour au catalogue

ARIANE 2 DEB

ActifGTO
NORAD 27039·DEBRIS·🇫🇷 France

Lancé Jan 27, 1989 depuis Guiana Space Centre

Loading…

TLE

VieillissantSource: Space-Track

Époque: Sep 14, 2026, 19:04 UTC

1 27039U 89006U   26257.79451435 -.00000057  00000-0  17417-3 0  9990
2 27039   7.9240 119.6237 7159819 348.1344 252.7655  2.26242962208187

Suivez ARIANE 2 DEB en temps réel avec AllMySat

Download on the App Store